User: anonymous   Login
Location: Novo Ouro Preto
(19.8840°S, 43.9844°W)
Time: 14:49:46
(UTC+00:00)
Language:

Gbstr 26 Del rocket - Orbit

View from above orbital plane
View from above orbital plane
View from above satellite
View from above satellite

Ground track
Ground track

The orbit data is extracted from the following two-line orbital elements,

1 25876U 99041E   21206.90654826  .00000114  00000-0  61445-4 0  9992
2 25876  51.7625 157.4499 0531647  80.9007 285.1660 14.04590007125326
Epoch (UTC): 25 July 2021 21:45:25
Eccentricity: 0.0531647
inclination: 51.7625°
perigee height: 492 km
apogee height: 1264 km
right ascension of ascending node: 157.4499°
argument of perigee: 80.9007°
revolutions per day: 14.04590007
mean anomaly at epoch: 285.1660°
orbit number at epoch: 12532

The dashed part of the orbit path shows where the satellite is in the earth's shadow,  

DLR